Home > Weather > Wainwright > Past weeks

Flag for U.S.A. Weather for the Past 2 Weeks in Wainwright, Alaska, U.S.A.

Now
-4 °F

Snow. Ice fog.


Feels Like: -33 °F
Forecast: -2 / 0 °F
Wind: 36 mph from East

Location: Wainwright Distant Early Warning

Current Time: Feb 13, 2016 at 5:26:29 PM

Latest Report: Feb 13, 2016 at 3:53 PM


Visibility: 0 mi

Pressure: 29.59 "Hg

Humidity: 83%

Dew point: -8 °F

Location of WainwrightLocation

Historic Weather in Wainwright — Graph

°F

Wainwright Temperature Yesterday

Maximum temperature yesterday: 7 °F (at 7:53 AM)
Minimum temperature yesterday: 0 °F (at 12:56 PM)
Average temperature yesterday: 4 °F

High & Low Weather Summary for the Past Weeks

 TemperatureHumidityPressure
High20 °F (Jan 31, 5:53 AM)92% (Jan 31, 9:53 AM)30.41 "Hg (Jan 31, 9:53 AM)
Low-20 °F (Feb 6, 5:00 AM)72% (Feb 6, 5:53 AM)29.36 "Hg (Jan 29, 3:53 PM)
Average-5 °F79%29.98 "Hg
* Reported Jan 29 3:53 PM — Feb 13 3:53 PM, Wainwright, Weather by CustomWeather, © 2016

Note: Actual official high and low records may vary slightly from our data, if they occured in-between our weather recording intervals... More about our weather records

Advertising

Wainwright Weather History for the Previous 24 Hours

 ConditionsComfort  
Time TempWeatherWind HumidityBarometerVisibility
3:53 PM
Sat, Feb 13
-4 °FSnow. Ice fog.36 mph83%29.59 "Hg0 mi
2:53 PM-3 °FHeavy snow. Cloudy.38 mph78%29.60 "Hg0 mi
1:53 PM-2 °FHeavy snow. Cloudy.39 mph78%29.60 "Hg0 mi
12:53 PM-2 °FLight snow. Ice fog.38 mph83%29.62 "Hg0 mi
11:53 AM-1 °FHeavy snow. Cloudy.40 mph79%29.62 "Hg0 mi
10:53 AM-1 °FLight snow. Ice fog.38 mph82%29.63 "Hg0 mi
9:53 AM-1 °FLight snow. Ice fog.35 mph82%29.64 "Hg0 mi
8:53 AM-1 °FSnow. Ice fog.37 mph82%29.65 "Hg0 mi
7:53 AM-1 °FHeavy snow. Overcast.35 mph79%29.66 "Hg0 mi
6:53 AM-1 °FLight snow. Ice fog.35 mph82%29.66 "Hg0 mi
5:53 AM0 °FHeavy snow. Ice fog.37 mph79%29.67 "Hg0 mi
4:53 AM-1 °FSnow. Ice fog.37 mph82%29.68 "Hg0 mi
3:53 AM0 °FHeavy snow. Ice fog.36 mph79%29.68 "Hg0 mi
2:53 AM0 °FSnow. Ice fog.35 mph83%29.69 "Hg0 mi
1:53 AM1 °FLight snow. Ice fog.31 mph83%29.70 "Hg0 mi
1:00 AM2 °FLight snow. Ice fog.31 mph83%29.69 "Hg0 mi
11:53 PM
Fri, Feb 12
2 °FLight snow. Ice fog.33 mph83%29.69 "Hg0 mi
10:53 PM3 °FLight snow. Ice fog.30 mph84%29.70 "Hg0 mi
9:53 PM4 °FLight snow. Ice fog.32 mph84%29.70 "Hg0 mi
8:53 PM4 °FLight snow. Ice fog.32 mph88%29.71 "Hg1 mi
7:53 PM5 °FIce fog.30 mph83%29.71 "Hg1 mi
6:53 PM5 °FLight snow. Ice fog.29 mph83%29.72 "Hg0 mi
5:53 PM5 °FLight snow. Ice fog.28 mph87%29.73 "Hg1 mi
5:00 PM6 °FLight snow. Ice fog.26 mph83%29.73 "Hg0 mi
Weather by CustomWeather, © 2016

See weather overviewHow to use our weather pages